EW5390 Weather Reports


Display with metric or nautical units.
time (UTC)temp
F
wind
direction
speed
MPH
gust
MPH
rain 1hr
in
rain 24hr
in
rain mn
in
humidity
%
barometer
mb
20260831222553 79 0 0.0 1.0 0.00 0.00 0.00 83 1018.7
20260831222053 79 0 0.0 1.0 0.00 0.00 0.00 83 1018.7
20260831221604 79 0 0.0 0.0 0.00 0.00 0.00 82 1018.7
20260831221051 79 0 0.0 0.0 0.00 0.00 0.00 82 1018.7
20260831220554 80 0 0.0 0.0 0.00 0.00 0.00 83 1018.8
20260831220106 80 0 0.0 0.0 0.00 0.00 0.00 82 1018.9
20260831215551 80 0 0.0 0.0 0.00 0.00 0.00 82 1019.0
20260831215054 80 0 0.0 2.0 0.00 0.00 0.00 81 1019.1
20260831214559 80 0 0.0 2.0 0.00 0.00 0.00 81 1019.1
20260831214054 80 72 0.0 2.0 0.00 0.00 0.00 81 1019.1
20260831213554 80 0 0.0 1.0 0.00 0.00 0.00 81 1019.1
20260831213100 80 131 0.0 3.0 0.00 0.00 0.00 80 1019.1
20260831212555 80 0 0.0 3.0 0.00 0.00 0.00 81 1018.9
20260831212056 80 0 0.0 1.0 0.00 0.00 0.00 80 1018.9
20260831211621 80 198 0.0 1.0 0.00 0.00 0.00 79 1018.8
20260831211051 80 0 0.0 1.0 0.00 0.00 0.00 78 1018.7
20260831210554 80 0 0.0 4.0 0.00 0.00 0.00 80 1018.7
20260831210100 80 0 0.0 5.0 0.00 0.00 0.00 79 1018.7
20260831205555 80 53 2.0 5.0 0.00 0.00 0.00 78 1018.6
20260831205055 80 0 1.0 6.0 0.00 0.00 0.00 79 1018.6
20260831204604 80 56 4.0 6.0 0.00 0.00 0.00 80 1018.5
20260831204054 80 69 2.0 7.0 0.00 0.00 0.00 80 1018.5
20260831203617 80 59 2.0 7.0 0.00 0.00 0.00 83 1018.5
20260831203106 80 63 5.0 7.0 0.00 0.00 0.00 81 1018.5
20260831202550 80 53 1.0 6.0 0.00 0.00 0.00 83 1018.5
20260831202056 80 66 4.0 6.0 0.00 0.00 0.00 83 1018.5
20260831201601 80 51 4.0 6.0 0.00 0.00 0.00 82 1018.5
20260831201055 80 49 2.0 4.0 0.00 0.00 0.00 83 1018.6
20260831200554 81 57 1.0 6.0 0.00 0.00 0.00 84 1018.6
20260831195556 81 51 5.0 6.0 0.00 0.00 0.00 82 1018.6
20260831195054 81 58 2.0 6.0 0.00 0.00 0.00 82 1018.6
20260831194643 81 63 1.0 5.0 0.00 0.00 0.00 83 1018.6
20260831194051 81 53 2.0 5.0 0.00 0.00 0.00 83 1018.7
20260831193555 81 58 3.0 5.0 0.00 0.00 0.00 84 1018.6
20260831193105 81 65 3.0 5.0 0.00 0.00 0.00 84 1018.8
20260831192554 81 58 0.0 3.0 0.00 0.00 0.00 85 1018.8
20260831192054 81 90 1.0 5.0 0.00 0.00 0.00 85 1018.8
20260831191607 80 62 2.0 5.0 0.00 0.00 0.00 85 1018.9
20260831191054 80 63 3.0 6.0 0.00 0.00 0.00 84 1018.9
20260831190556 80 56 3.0 6.0 0.00 0.00 0.00 85 1019.0
20260831190109 80 56 3.0 6.0 0.00 0.00 0.00 85 1019.0
20260831185554 80 56 4.0 6.0 0.00 0.00 0.00 85 1019.1
20260831185054 81 62 3.0 6.0 0.00 0.00 0.00 85 1019.1
20260831184605 81 54 3.0 5.0 0.00 0.00 0.00 85 1019.1
20260831184051 81 52 3.0 6.0 0.00 0.00 0.00 85 1019.3
20260831183554 81 51 3.0 6.0 0.00 0.00 0.00 85 1019.2
20260831183101 81 60 4.0 6.0 0.00 0.00 0.00 84 1019.2
20260831182554 81 63 2.0 5.0 0.00 0.00 0.00 83 1019.1
20260831182055 81 56 3.0 5.0 0.00 0.00 0.00 84 1019.1
20260831181559 81 49 2.0 4.0 0.00 0.00 0.00 83 1019.1
20260831181053 81 56 2.0 4.0 0.00 0.00 0.00 83 1019.1
20260831180554 81 67 1.0 5.0 0.00 0.00 0.00 84 1019.2
20260831180100 81 58 3.0 7.0 0.00 0.00 0.00 83 1019.2
20260831175558 81 25 3.0 7.0 0.00 0.00 0.00 82 1019.3
20260831175054 81 58 4.0 6.0 0.00 0.00 0.00 83 1019.3
20260831174601 81 49 2.0 5.0 0.00 0.00 0.00 82 1019.2
20260831174059 81 57 0.0 5.0 0.00 0.00 0.00 82 1019.3
20260831173559 81 58 2.0 5.0 0.00 0.00 0.00 82 1019.4
20260831173132 81 49 1.0 5.0 0.00 0.00 0.00 83 1019.4
20260831172553 81 57 2.0 6.0 0.00 0.00 0.00 84 1019.5
20260831172053 80 53 3.0 6.0 0.00 0.00 0.00 84 1019.6
20260831171605 80 72 1.0 5.0 0.00 0.00 0.00 86 1019.5
20260831171054 80 60 3.0 5.0 0.00 0.00 0.00 85 1019.5
20260831170554 80 56 2.0 5.0 0.00 0.00 0.00 86 1019.5
20260831170110 80 63 1.0 3.0 0.00 0.00 0.00 86 1019.5
20260831165553 80 30 1.0 3.0 0.00 0.00 0.00 86 1019.5
20260831165053 80 0 1.0 3.0 0.00 0.00 0.00 87 1019.5
20260831164601 79 61 0.0 5.0 0.00 0.00 0.00 87 1019.5
20260831164053 79 62 1.0 5.0 0.00 0.00 0.00 87 1019.5
20260831163555 79 68 3.0 5.0 0.00 0.00 0.00 86 1019.7
20260831163100 79 61 2.0 4.0 0.00 0.00 0.00 87 1019.7
20260831162554 79 63 1.0 5.0 0.00 0.00 0.00 87 1019.7
20260831162058 79 57 3.0 5.0 0.00 0.00 0.00 87 1019.8
20260831161601 79 56 2.0 4.0 0.00 0.00 0.00 87 1019.8
20260831161054 79 66 1.0 5.0 0.00 0.00 0.00 87 1019.9
20260831160556 79 58 2.0 5.0 0.00 0.00 0.00 87 1019.8
20260831160104 79 63 3.0 6.0 0.00 0.00 0.00 87 1019.9
20260831155554 79 57 3.0 7.0 0.00 0.00 0.00 86 1019.8
20260831155054 80 62 5.0 7.0 0.00 0.00 0.00 85 1019.9
20260831154634 80 51 3.0 6.0 0.00 0.00 0.00 84 1019.8
20260831154054 81 56 3.0 9.0 0.00 0.00 0.00 85 1019.9
20260831153553 81 48 4.0 9.0 0.00 0.00 0.00 84 1019.9
20260831153116 81 58 3.0 5.0 0.00 0.00 0.00 85 1019.8
20260831152556 81 56 2.0 6.0 0.00 0.00 0.00 85 1019.8
20260831152053 80 58 2.0 6.0 0.00 0.00 0.00 86 1019.7
20260831151607 80 54 4.0 6.0 0.00 0.00 0.00 85 1019.8
20260831151054 80 53 3.0 5.0 0.00 0.00 0.00 85 1019.8
20260831150553 80 49 1.0 3.0 0.00 0.00 0.00 86 1019.6
20260831145556 79 116 1.0 6.0 0.00 0.00 0.00 87 1019.8
20260831145057 79 58 4.0 6.0 0.00 0.00 0.00 88 1019.8
20260831144655 79 52 3.0 6.0 0.00 0.00 0.00 88 1019.8
20260831144053 79 73 3.0 5.0 0.00 0.00 0.00 88 1019.9
20260831143556 79 54 2.0 5.0 0.00 0.00 0.00 88 1019.9
20260831143108 78 0 1.0 6.0 0.00 0.00 0.00 88 1019.8
20260831142557 78 63 2.0 6.0 0.00 0.00 0.00 89 1019.8
20260831142053 78 55 3.0 7.0 0.00 0.00 0.00 89 1019.8
20260831141608 78 53 4.0 7.0 0.00 0.00 0.00 89 1019.7
20260831141054 78 60 3.0 7.0 0.00 0.00 0.00 90 1019.8
20260831140553 77 65 2.0 7.0 0.00 0.00 0.00 90 1019.8
20260831140105 77 63 4.0 7.0 0.00 0.00 0.00 90 1019.7
20260831135554 77 58 3.0 5.0 0.00 0.00 0.00 90 1019.8
20260831135051 77 54 3.0 4.0 0.00 0.00 0.00 90 1019.8
20260831134601 76 75 1.0 4.0 0.00 0.00 0.00 90 1019.9
20260831134054 76 61 2.0 5.0 0.00 0.00 0.00 90 1019.9
20260831133556 76 59 2.0 5.0 0.00 0.00 0.00 90 1019.8
20260831133103 76 0 2.0 4.0 0.00 0.00 0.00 91 1019.9
20260831132553 76 58 2.0 4.0 0.00 0.00 0.00 91 1019.9
20260831132053 76 55 2.0 5.0 0.00 0.00 0.00 91 1019.8
20260831131607 76 62 2.0 5.0 0.00 0.00 0.00 91 1019.8
20260831131053 76 63 0.0 3.0 0.00 0.00 0.00 91 1019.9
20260831130553 76 124 0.0 7.0 0.00 0.00 0.00 91 1019.8
20260831130109 76 0 3.0 7.0 0.00 0.00 0.00 92 1019.8
20260831125554 76 50 3.0 7.0 0.00 0.00 0.00 92 1019.7
20260831125055 76 57 1.0 5.0 0.00 0.00 0.00 92 1019.7
20260831124626 76 46 3.0 5.0 0.00 0.00 0.00 92 1019.6
20260831124056 75 61 3.0 5.0 0.00 0.00 0.00 92 1019.6
20260831123553 75 57 1.0 6.0 0.00 0.00 0.00 93 1019.5
20260831123104 75 0 1.0 6.0 0.00 0.00 0.00 94 1019.6
20260831122554 75 105 5.0 6.0 0.00 0.00 0.00 95 1019.6
20260831122056 75 51 3.0 6.0 0.00 0.00 0.00 96 1019.5
20260831121609 75 62 0.0 1.0 0.00 0.00 0.00 97 1019.5
20260831121053 74 0 0.0 1.0 0.00 0.00 0.00 97 1019.5
20260831120556 74 0 0.0 1.0 0.00 0.00 0.00 97 1019.5
20260831115552 74 129 0.0 1.0 0.00 0.00 0.00 97 1019.6
20260831115053 74 0 0.0 0.0 0.00 0.00 0.00 97 1019.4
20260831114601 74 0 0.0 1.0 0.00 0.00 0.00 97 1019.3
20260831114054 73 0 0.0 1.0 0.00 0.00 0.00 97 1019.3
20260831113554 73 0 0.0 1.0 0.00 0.00 0.00 97 1019.3
20260831113111 73 0 0.0 2.0 0.00 0.00 0.00 97 1019.3
20260831112553 73 71 1.0 2.0 0.00 0.00 0.00 97 1019.2
20260831112053 73 74 0.0 2.0 0.00 0.00 0.00 97 1019.1
20260831111603 73 0 0.0 1.0 0.00 0.00 0.00 97 1019.0
20260831111053 73 0 0.0 1.0 0.00 0.00 0.00 97 1019.0
20260831110554 73 0 0.0 1.0 0.00 0.00 0.00 97 1019.0
20260831105554 73 0 0.0 0.0 0.00 0.00 0.00 97 1018.9
20260831105054 73 0 0.0 0.0 0.00 0.00 0.00 97 1018.8
20260831104612 73 0 0.0 0.0 0.00 0.00 0.00 97 1018.8
20260831104054 73 0 0.0 0.0 0.00 0.00 0.00 97 1018.7
20260831103553 73 0 0.0 0.0 0.00 0.00 0.00 97 1018.7
20260831103056 73 0 0.0 1.0 0.00 0.00 0.00 97 1018.7
20260831102553 73 0 0.0 1.0 0.00 0.00 0.00 96 1018.7
20260831102053 73 129 0.0 1.0 0.00 0.00 0.00 97 1018.7
20260831101608 73 129 1.0 1.0 0.00 0.00 0.00 97 1018.6
20260831101053 73 129 0.0 1.0 0.00 0.00 0.00 96 1018.5
20260831100553 73 0 0.0 1.0 0.00 0.00 0.00 96 1018.5
20260831100119 73 129 0.0 1.0 0.00 0.00 0.00 96 1018.5
20260831095554 73 0 0.0 0.0 0.00 0.00 0.00 96 1018.5
20260831095053 73 0 0.0 0.0 0.00 0.00 0.00 96 1018.4
20260831094558 73 0 0.0 0.0 0.00 0.00 0.00 96 1018.4
20260831094055 73 0 0.0 0.0 0.00 0.00 0.00 96 1018.4
20260831093555 73 0 0.0 0.0 0.00 0.00 0.00 96 1018.3
20260831093108 73 0 0.0 0.0 0.00 0.00 0.00 96 1018.3
20260831092556 73 0 0.0 1.0 0.00 0.00 0.00 96 1018.3
20260831092053 73 0 0.0 1.0 0.00 0.00 0.00 97 1018.4
20260831091605 73 0 0.0 0.0 0.00 0.00 0.00 96 1018.4
20260831091053 73 0 0.0 0.0 0.00 0.00 0.00 96 1018.4
20260831090553 73 0 0.0 0.0 0.00 0.00 0.00 96 1018.5
20260831090059 73 0 0.0 0.0 0.00 0.00 0.00 96 1018.5
20260831085553 73 0 0.0 0.0 0.00 0.00 0.00 96 1018.5
20260831085055 73 0 0.0 0.0 0.00 0.00 0.00 96 1018.4
20260831084636 73 0 0.0 0.0 0.00 0.00 0.00 96 1018.5
20260831084053 73 0 0.0 0.0 0.00 0.00 0.00 96 1018.4
20260831083553 73 0 0.0 1.0 0.00 0.00 0.00 96 1018.4
20260831083108 73 0 0.0 1.0 0.00 0.00 0.00 96 1018.5
20260831082553 73 0 0.0 0.0 0.00 0.00 0.00 96 1018.5
20260831082053 73 0 0.0 1.0 0.00 0.00 0.00 96 1018.4
20260831081604 73 0 0.0 1.0 0.00 0.00 0.00 96 1018.5
20260831081055 73 129 0.0 1.0 0.00 0.00 0.00 96 1018.6
20260831080554 73 0 0.0 1.0 0.00 0.00 0.00 96 1018.6
20260831080120 73 127 1.0 1.0 0.00 0.00 0.00 96 1018.6
20260831075555 73 139 0.0 0.0 0.00 0.00 0.00 96 1018.6
20260831075052 73 0 0.0 0.0 0.00 0.00 0.00 96 1018.5
20260831074607 73 0 0.0 0.0 0.00 0.00 0.00 96 1018.6
20260831074053 73 0 0.0 0.0 0.00 0.00 0.00 96 1018.6
20260831073555 73 0 0.0 0.0 0.00 0.00 0.00 96 1018.6
20260831073105 73 0 0.0 0.0 0.00 0.00 0.00 96 1018.6
20260831072553 73 0 0.0 0.0 0.00 0.00 0.00 96 1018.6
20260831072053 73 0 0.0 0.0 0.00 0.00 0.00 96 1018.5
20260831071611 73 0 0.0 0.0 0.00 0.00 0.00 96 1018.5
20260831071053 73 0 0.0 0.0 0.00 0.00 0.00 96 1018.5
20260831070553 73 0 0.0 0.0 0.00 0.00 0.00 96 1018.4
20260831070104 73 0 0.0 0.0 0.00 0.00 0.00 96 1018.5
20260831065553 73 0 0.0 0.0 0.00 0.00 0.00 96 1018.5
20260831065053 73 0 0.0 0.0 0.00 0.00 0.00 96 1018.5
20260831064604 73 0 0.0 0.0 0.00 0.00 0.00 96 1018.5
20260831064053 73 0 0.0 0.0 0.00 0.00 0.00 96 1018.6
20260831063552 73 0 0.0 0.0 0.00 0.00 0.00 96 1018.7
20260831063112 73 0 0.0 0.0 0.00 0.00 0.00 96 1018.7
20260831062556 73 0 0.0 0.0 0.00 0.00 0.00 96 1018.7
20260831062053 73 0 0.0 0.0 0.00 0.00 0.00 95 1018.7
20260831061601 73 0 0.0 0.0 0.00 0.00 0.00 95 1018.7
20260831061054 73 0 0.0 0.0 0.00 0.00 0.00 95 1018.8
20260831060554 73 0 0.0 0.0 0.00 0.00 0.00 95 1018.8
20260831060105 73 0 0.0 0.0 0.00 0.00 0.00 95 1018.8
20260831055553 73 0 0.0 0.0 0.00 0.00 0.00 95 1018.7
20260831055053 73 0 0.0 0.0 0.00 0.00 0.00 95 1018.8
20260831054605 73 0 0.0 0.0 0.00 0.00 0.00 95 1018.8
20260831054053 73 0 0.0 0.0 0.00 0.00 0.00 95 1018.8
20260831053553 73 0 0.0 0.0 0.00 0.00 0.00 95 1018.7
20260831053122 73 0 0.0 0.0 0.00 0.00 0.00 95 1018.7
20260831052556 73 0 0.0 0.0 0.00 0.00 0.00 95 1018.7
20260831052057 73 0 0.0 0.0 0.00 0.00 0.00 95 1018.7
20260831051559 73 0 0.0 0.0 0.00 0.00 0.00 95 1018.8
20260831051053 73 0 0.0 0.0 0.00 0.00 0.00 94 1018.6
20260831050553 73 0 0.0 0.0 0.00 0.00 0.00 94 1018.6
20260831050120 73 0 0.0 0.0 0.00 0.00 0.00 94 1018.6
20260831045553 73 0 0.0 0.0 0.00 0.00 0.00 94 1018.6
20260831045054 73 0 0.0 0.0 0.00 0.00 0.00 94 1018.7
20260831044602 73 0 0.0 0.0 0.00 0.00 0.00 94 1018.7
20260831044053 74 0 0.0 0.0 0.00 0.00 0.00 94 1018.7
20260831043552 74 0 0.0 0.0 0.00 0.00 0.00 94 1018.8
20260831043102 74 0 0.0 0.0 0.00 0.00 0.00 94 1018.7
20260831042554 74 0 0.0 0.0 0.00 0.00 0.00 94 1018.8
20260831042057 74 0 0.0 0.0 0.00 0.00 0.00 93 1018.7
20260831041621 74 0 0.0 0.0 0.00 0.00 0.00 93 1018.8
20260831041053 74 0 0.0 0.0 0.00 0.00 0.00 93 1018.8
20260831040556 74 0 0.0 0.0 0.00 0.00 0.00 93 1018.8
20260831040112 74 0 0.0 0.0 0.00 0.00 0.00 93 1018.9
20260831035552 74 0 0.0 0.0 0.00 0.00 0.00 93 1018.9
20260831035052 74 0 0.0 0.0 0.00 0.00 0.00 93 1019.1
20260831034602 74 0 0.0 0.0 0.00 0.00 0.00 92 1019.1
20260831034055 74 0 0.0 0.0 0.00 0.00 0.00 92 1018.9
20260831033554 74 0 0.0 0.0 0.00 0.00 0.00 92 1018.9
20260831033114 74 0 0.0 0.0 0.00 0.00 0.00 92 1019.1
20260831032554 74 0 0.0 0.0 0.00 0.00 0.00 92 1019.1
20260831032057 74 0 0.0 0.0 0.00 0.00 0.00 91 1019.2
20260831031606 74 0 0.0 0.0 0.00 0.00 0.00 91 1019.1
20260831031054 75 0 0.0 0.0 0.00 0.00 0.00 91 1019.1
20260831030552 75 0 0.0 1.0 0.00 0.00 0.00 91 1019.2
20260831030107 75 0 0.0 1.0 0.00 0.00 0.00 91 1019.1
20260831025555 75 0 0.0 0.0 0.00 0.00 0.00 90 1019.1
20260831025056 75 152 0.0 0.0 0.00 0.00 0.00 90 1019.1
20260831024604 75 152 0.0 0.0 0.00 0.00 0.00 90 1019.2
20260831024052 75 0 0.0 0.0 0.00 0.00 0.00 89 1019.1
20260831023552 75 0 0.0 1.0 0.00 0.00 0.00 89 1019.2
20260831023106 75 0 0.0 1.0 0.00 0.00 0.00 89 1019.2
20260831022552 75 0 0.0 0.0 0.00 0.00 0.00 88 1019.4
20260831022054 76 0 0.0 0.0 0.00 0.00 0.00 88 1019.5
20260831021605 76 0 0.0 0.0 0.00 0.00 0.00 87 1019.5
20260831021052 76 0 0.0 0.0 0.00 0.00 0.00 87 1019.5
20260831020553 76 0 0.0 1.0 0.00 0.00 0.00 87 1019.5
20260831015552 76 0 0.0 1.0 0.00 0.00 0.00 86 1019.4
20260831015052 76 0 0.0 0.0 0.00 0.00 0.00 86 1019.4
20260831014617 77 0 0.0 1.0 0.00 0.00 0.00 87 1019.4
20260831014052 77 0 0.0 1.0 0.00 0.00 0.00 87 1019.3
20260831013552 77 0 0.0 1.0 0.00 0.00 0.00 87 1019.3
20260831013106 77 152 0.0 0.0 0.00 0.00 0.00 87 1019.4
20260831012553 77 0 0.0 0.0 0.00 0.00 0.00 87 1019.4
20260831012054 77 0 0.0 0.0 0.00 0.00 0.00 88 1019.4
20260831011616 77 0 0.0 0.0 0.00 0.00 0.00 88 1019.3
20260831011052 77 0 0.0 0.0 0.00 0.00 0.00 88 1019.3
20260831010552 77 0 0.0 0.0 0.00 0.00 0.00 88 1019.3
20260831010113 77 0 0.0 0.0 0.00 0.00 0.00 88 1019.4
20260831005554 77 0 0.0 0.0 0.00 0.00 0.00 88 1019.4
20260831005052 77 0 0.0 0.0 0.00 0.00 0.00 88 1019.3
20260831004615 77 0 0.0 0.0 0.00 0.00 0.00 88 1019.3
20260831004056 77 0 0.0 0.0 0.00 0.00 0.00 88 1019.2
20260831003555 77 0 0.0 0.0 0.00 0.00 0.00 88 1019.2
20260831003111 77 0 0.0 0.0 0.00 0.00 0.00 88 1019.1
20260831002553 77 0 0.0 0.0 0.00 0.00 0.00 88 1019.1
20260831002054 77 0 0.0 0.0 0.00 0.00 0.00 88 1019.0
20260831001618 77 0 0.0 0.0 0.00 0.00 0.00 88 1018.9
20260831001054 77 0 0.0 0.0 0.00 0.00 0.00 87 1018.9
20260831000555 78 0 0.0 0.0 0.00 0.00 0.00 87 1018.9
20260831000106 78 0 0.0 0.0 0.00 0.00 0.00 87 1019.0
20260830235553 78 0 0.0 0.0 0.00 0.00 0.00 86 1018.9
20260830235053 78 0 0.0 0.0 0.00 0.00 0.00 86 1018.9
20260830234607 78 0 0.0 0.0 0.00 0.00 0.00 86 1018.8
20260830234053 78 0 0.0 0.0 0.00 0.00 0.00 85 1018.8
20260830233554 79 0 0.0 0.0 0.00 0.00 0.00 85 1018.8
20260830233057 79 0 0.0 0.0 0.00 0.00 0.00 85 1018.8
20260830232552 79 0 0.0 0.0 0.00 0.00 0.00 84 1018.9
20260830232051 79 0 0.0 0.0 0.00 0.00 0.00 84 1018.9
20260830231611 79 152 0.0 0.0 0.00 0.00 0.00 84 1018.9
20260830231054 79 0 0.0 0.0 0.00 0.00 0.00 84 1018.9
20260830230553 79 0 0.0 0.0 0.00 0.00 0.00 83 1019.1
20260830230108 80 0 0.0 0.0 0.00 0.00 0.00 83 1019.0
20260830225555 80 0 0.0 0.0 0.00 0.00 0.00 83 1019.1
20260830225052 80 0 0.0 0.0 0.00 0.00 0.00 82 1019.1
20260830224608 80 0 0.0 0.0 0.00 0.00 0.00 81 1019.0
20260830224052 80 0 0.0 0.0 0.00 0.00 0.00 81 1018.9
20260830223552 80 152 0.0 0.0 0.00 0.00 0.00 81 1018.9
20260830223056 81 0 0.0 0.0 0.00 0.00 0.00 80 1019.1